SCOUT A DEB, 2226

Orbit data source: Space-Track

SCOUT A DEB, 2226 is space debris in LEO originally from a launch on Wed, 22 Dec 1965 UTC launched from the Air Force Western Test Range (AFWTR). Debris objects in space refer to the collection of defunct objects orbiting the Earth. Examples of debris include non-operational satellites, rocket bodies, and fragments generated from explosions, collisions, or faulty payload assembly.

Loading next visibility...
Identifier
2226, 1965-109D
Orbit
LEO
Country
Flag of USUS
Related business
Manufacturer
Unknown
Mission
Spacecraft
Bus & Motor
Unknown
Mass
Unknown
Launch date (UTC)
1965-12-22 (60 years ago)
Launch vehicle
Unknown
Launch site
Air Force Western Test Range (AFWTR)
Object type
Payload
Rocket body
Debris
Shape & HBR
Unknown shape, 0.1 m
Radar Cross Section
Small (<0.1 m²)

Expand to show TLE details & history
Last TLE update: 4 days ago

TLE from 4 days ago
0 SCOUT A DEB
1 02226U 65109D   26068.65567404  .00000230  00000-0  28080-3 0  9998
2 02226  89.0567 316.3653 0247031 331.8662  26.9320 13.51253065940244
Epoch: 2026-03-09T15:44Z
TLE epoch observation values (Epoch: 2026-03-09T15:44:10.237Z)
Latitude
0.00004°
Longitude
-87.02285°
Altitude
907.555 km
Speed
7.479 km/s
True Right ascension
21h 05m 27s
True Declination
0° 00' 00"
Sunlit
Object was in daylight at epoch
Visualization orbit readout
Latitude
Unknown
Longitude
Unknown
Altitude
Unknown
Speed
Unknown
Apparent Right ascension
Unknown
Apparent Declination
Unknown
Sunlit
N/A
Visualization observer readout
Local Sidereal Time
00:59:22
Azimuth
Unknown
Elevation
Unknown
Doppler factor
Unknown
Orbital elements
Apogee altitude
1,248.561 km
Perigee altitude
880.838 km
Semi-major axis
7,442.836 km
Eccentricity
0.0247
Inclination
89.0567°
RAAN
316.3653°
Arg. of periapsis
331.8662°
True anomaly
28.25028°
Mean anomaly
26.932°
Eccentric anomaly
27.58747°
Mean motion
3.38015 °/min
Orbital period
106.5 mins
BSTAR
0.0002808
Loading maneuver chart data...
Computing Atmospheric mass density...
Loading historical data...
Loading historical data...
Loading historical data...
Loading historical data...
Loading historical data...
Loading historical data...
Loading historical data...

Documentation

Showing up to 5 results
|